カタログに戻る

CHINASAT 20

運用中通信GEO
NORAD 28082·PAYLOAD·🇨🇳 China

打ち上げ Nov 14, 2003 から Xichang Satellite Launch Center

Loading…

TLE

最新Source: Space-Track

元期: Sep 14, 2026, 13:56 UTC

1 28082U 03052A   26257.58064771 -.00000025  00000-0  00000+0 0  9997
2 28082  10.6599  49.0299 0005155 141.0693  40.2566  0.99111163 83279

AllMySatでCHINASAT 20をリアルタイム追跡

Download on the App Store